Estación de Huelquen

Ultimos registro cada 15 minutos 51
Estación Fecha / Hora Temperatura Humedad Lluvia Velocidad Dirección Radiación Presion
51 Huelquen 10-05-2026 12:30 24,2 33 0 0 259 543 1013,1
50 Huelquen 10-05-2026 12:15 23,4 32 0 0 243 540 1013,3
49 Huelquen 10-05-2026 12:00 22,8 34 0 0 243 534 1013,4
48 Huelquen 10-05-2026 11:45 22,2 38 0 0 283 526 1013,8
47 Huelquen 10-05-2026 11:30 21,2 41 0 0 283 512 1014,1
46 Huelquen 10-05-2026 11:15 20,4 45 0 0,4 282 492 1014,3
45 Huelquen 10-05-2026 11:00 19,6 45 0 0 226 478 1014,4
44 Huelquen 10-05-2026 10:45 18,3 49 0 0 179 457 1014,6
43 Huelquen 10-05-2026 10:30 17,7 51 0 0 179 432 1014,8
42 Huelquen 10-05-2026 10:15 16,4 55 0 0 179 406 1014,9
41 Huelquen 10-05-2026 10:00 14,7 63 0 0 181 373 1015
40 Huelquen 10-05-2026 09:45 13,2 67 0 0 181 343 1015,2
39 Huelquen 10-05-2026 09:30 11,4 83 0 0 181 306 1015,3
38 Huelquen 10-05-2026 09:15 9,9 90 0 0 181 265 1015,5
37 Huelquen 10-05-2026 09:00 8,8 94 0 0 212 229 1015,5
36 Huelquen 10-05-2026 08:45 6,8 94 0 0 241 188 1015,3
35 Huelquen 10-05-2026 08:30 4,8 93 0 0 184 151 1014,9
34 Huelquen 10-05-2026 08:15 2,6 90 0 0 181 98 1014,7
33 Huelquen 10-05-2026 08:00 1,9 88 0,2 0 181 14 1014,4
32 Huelquen 10-05-2026 07:45 1,6 87 0 0 181 11 1014,3
31 Huelquen 10-05-2026 07:30 1,7 86 0 0 181 7 1014,3
30 Huelquen 10-05-2026 07:15 2,1 87 0 0 181 0 1014,2
29 Huelquen 10-05-2026 07:00 1,9 87 0 0 181 0 1014,1
28 Huelquen 10-05-2026 06:45 1,7 86 0 0 181 0 1014,2
27 Huelquen 10-05-2026 06:30 1,9 86 0 0 181 0 1014,2
26 Huelquen 10-05-2026 06:15 2 86 0 0 181 0 1014,2
25 Huelquen 10-05-2026 06:00 2,3 86 0 0 182 0 1014,3
24 Huelquen 10-05-2026 05:45 2,5 86 0 0 182 0 1014,3
23 Huelquen 10-05-2026 05:30 2,6 87 0 0 182 0 1014,1
22 Huelquen 10-05-2026 05:15 2,6 86 0 0 182 0 1014
21 Huelquen 10-05-2026 05:00 2,8 86 0 0 182 0 1014,1
20 Huelquen 10-05-2026 04:45 2,9 86 0 0 182 0 1014
19 Huelquen 10-05-2026 04:30 3,1 86 0 0 182 0 1014,1
18 Huelquen 10-05-2026 04:15 3,2 86 0 0 182 0 1014,1
17 Huelquen 10-05-2026 04:00 2,9 85 0 0 182 0 1014,3
16 Huelquen 10-05-2026 03:45 3,1 85 0 0 182 0 1014,3
15 Huelquen 10-05-2026 03:30 3,6 85 0 0 182 0 1014,3
14 Huelquen 10-05-2026 03:15 3,7 87 0 0 182 0 1014,1
13 Huelquen 10-05-2026 03:00 3,2 85 0 0 182 0 1014,3
12 Huelquen 10-05-2026 02:45 3,7 85 0 0 181 0 1014,6
11 Huelquen 10-05-2026 02:30 4 85 0 0 181 0 1014,8
10 Huelquen 10-05-2026 02:15 4,2 85 0 0 181 0 1014,8
9 Huelquen 10-05-2026 02:00 4,2 85 0 0 181 0 1014,7
8 Huelquen 10-05-2026 01:45 4,4 84 0 0 181 0 1014,8
7 Huelquen 10-05-2026 01:30 4,6 86 0 0 181 0 1015,2
6 Huelquen 10-05-2026 01:15 4,4 84 0 0 181 0 1015,1
5 Huelquen 10-05-2026 01:00 4,6 84 0 0 181 0 1015
4 Huelquen 10-05-2026 00:45 5,1 84 0 0 181 0 1015,2
3 Huelquen 10-05-2026 00:30 5,2 84 0 0 181 0 1015,1
2 Huelquen 10-05-2026 00:15 5,3 83 0 0 181 0 1015,1
1 Huelquen 10-05-2026 00:00 5,5 83 0 0 181 0 1015,3